Weather History for Imperial, NE

Change the Weather History Date:

Sunday, February 10, 2013

  Actual Average Record
Temperature  
Mean Temperature 29 °F 30 °F  
Max Temperature 35 °F 43 °F 78 °F (1962)
Min Temperature 22 °F 18 °F -12 °F (1895)
Degree Days  
Heating Degree Days 36 35  
Month to date heating degree days 262 354  
Cooling Degree Days 0 0  
Month to date cooling degree days 0 0  
Year to date cooling degree days 0 0  
Moisture  
Dew Point 23 °F    
Average Humidity 78    
Maximum Humidity 92    
Minimum Humidity 64    
Precipitation  
Precipitation 0.07 in 0.02 in 0.64 in (1993)
Sea Level Pressure  
Sea Level Pressure 29.61 in    
Wind  
Wind Speed 23 mph (NW)    
Max Wind Speed 38 mph    
Max Gust Speed 49 mph    
Visibility 4 miles    
Events Fog , Snow    
T = Trace of Precipitation, MM = Missing Value Source: NWS Daily Summary

Daily Weather History Graph

Daily Weather History Graph

Search for Another Location

Airport:

Trip Planner

Search our weather history database for the weather conditions in past years. The results will help you decide how hot, cold, wet, or windy it might be!

Date:

Astronomy

Feb. 10, 2013 Rise Set
Actual Time 6:45 AM MST 5:16 PM MST
Civil Twilight 6:17 AM MST 5:44 PM MST
Nautical Twilight 5:45 AM MST 6:16 PM MST
Astronomical Twilight 5:13 AM MST 6:48 PM MST
Moon 6:36 AM MST (2/10) 6:09 PM MST (2/10)
Length of Visible Light 11h 26m
Length of Day
10h 30m
New Moon, 0% of the Moon is Illuminated
Feb 10
New Moon
Feb 17
First Quarter
Feb 25
Full
Mar 4
Last Quarter
Mar 11
New

Hourly Weather History & Observations

Time (MST) Temp. Windchill Dew Point Humidity Pressure Visibility Wind Dir Wind Speed Gust Speed Precip Events Conditions
12:00 AM 28.4 °F 15.1 °F 24.8 °F 86% 29.39 in 1.8 mi NW 20.7 mph 27.6 mph 0.01 in Snow Light Snow
12:26 AM 26.6 °F 11.1 °F 24.8 °F 93% 29.39 in 1.0 mi NW 26.5 mph 33.4 mph 0.01 in Snow Light Snow
12:36 AM 26.6 °F 13.1 °F 24.8 °F 93% 29.38 in 1.2 mi NW 19.6 mph 33.4 mph 0.01 in Snow Light Snow
12:45 AM 26.6 °F 11.1 °F 24.8 °F 93% 29.38 in 0.8 mi NW 26.5 mph 34.5 mph 0.01 in   Mist
12:53 AM 26.1 °F 11.3 °F 24.1 °F 92% 29.40 in 0.8 mi NW 23.0 mph 33.4 mph 0.02 in Snow Light Snow
1:17 AM 26.6 °F 12.0 °F 23.0 °F 86% 29.38 in 1.0 mi NW 23.0 mph 33.4 mph 0.00 in Snow Light Snow
1:23 AM 26.6 °F 12.0 °F 23.0 °F 86% 29.38 in 2.0 mi NW 23.0 mph 32.2 mph 0.00 in Snow Light Snow
1:33 AM 26.6 °F 11.7 °F 23.0 °F 86% 29.38 in 4.0 mi NW 24.2 mph 35.7 mph 0.01 in   Overcast
1:49 AM 24.8 °F 9.0 °F 21.2 °F 86% 29.38 in 3.0 mi NW 25.3 mph 39.1 mph 0.01 in Snow Light Snow
1:53 AM 25.0 °F 8.1 °F 21.9 °F 88% 29.40 in 2.5 mi NW 29.9 mph 35.7 mph 0.01 in Snow Light Snow
2:01 AM 24.8 °F 10.0 °F 21.2 °F 86% 29.38 in 3.0 mi NW 21.9 mph 35.7 mph 0.00 in Snow Light Snow
2:11 AM 24.8 °F 9.6 °F 21.2 °F 86% 29.38 in 1.8 mi NW 23.0 mph 33.4 mph 0.00 in Snow Light Snow
2:14 AM 24.8 °F 10.3 °F 21.2 °F 86% 29.38 in 1.2 mi NW 20.7 mph 28.8 mph 0.00 in Snow Light Snow
2:22 AM 24.8 °F 7.6 °F 21.2 °F 86% 29.38 in 0.8 mi NW 31.1 mph 39.1 mph 0.00 in Snow Light Snow
2:53 AM 24.1 °F 7.7 °F 21.9 °F 91% 29.40 in 0.8 mi NW 26.5 mph 42.6 mph 0.00 in Snow Light Snow
3:15 AM 24.8 °F 8.7 °F 21.2 °F 86% 29.38 in 1.2 mi NW 26.5 mph 38.0 mph 0.00 in Snow Light Snow
3:23 AM 24.8 °F 8.7 °F 21.2 °F 86% 29.38 in 3.0 mi NW 26.5 mph 36.8 mph 0.00 in   Overcast
3:53 AM 24.1 °F 8.0 °F 21.0 °F 88% 29.42 in 2.5 mi NW 25.3 mph 36.8 mph 0.00 in Snow Light Snow
4:02 AM 24.8 °F 8.7 °F 19.4 °F 80% 29.39 in 4.0 mi NW 26.5 mph 36.8 mph 0.00 in Snow Light Snow
4:45 AM 24.8 °F 8.4 °F 21.2 °F 86% 29.41 in 1.8 mi NW 27.6 mph 38.0 mph 0.00 in Snow Light Snow
4:53 AM 24.1 °F 7.4 °F 21.0 °F 88% 29.45 in 1.0 mi NW 27.6 mph 38.0 mph 0.00 in Snow Light Snow
5:12 AM 24.8 °F 7.6 °F 21.2 °F 86% 29.43 in 1.0 mi NW 31.1 mph 40.3 mph 0.01 in Snow Light Snow
5:29 AM 24.8 °F 8.1 °F 21.2 °F 86% 29.44 in 1.0 mi NNW 28.8 mph 38.0 mph 0.01 in Snow Light Snow
5:53 AM 26.6 °F 10.6 °F 23.0 °F 86% 29.45 in 1.0 mi NNW 28.8 mph 38.0 mph N/A Snow Light Snow
6:08 AM 26.6 °F 10.8 °F 23.0 °F 86% 29.46 in 1.0 mi NW 27.6 mph 41.4 mph 0.00 in Snow Light Snow
6:23 AM 26.6 °F 10.8 °F 23.0 °F 86% 29.47 in 1.2 mi NNW 27.6 mph 40.3 mph 0.00 in Snow Light Snow
6:53 AM 26.1 °F 9.3 °F 23.0 °F 88% 29.57 in 0.8 mi NNW 31.1 mph 49.5 mph 0.00 in Snow Light Snow
7:31 AM 26.6 °F 9.1 °F 24.8 °F 93% 29.52 in 0.2 mi NNW 35.7 mph 44.9 mph 0.01 in Fog , Snow Snow
7:42 AM 26.6 °F 10.3 °F 24.8 °F 93% 29.53 in 0.2 mi NNW 29.9 mph 42.6 mph 0.01 in Fog , Snow Snow
7:50 AM 26.6 °F 9.8 °F 24.8 °F 93% 29.53 in 0.2 mi NW 32.2 mph 43.7 mph 0.01 in Fog , Snow Light Snow
7:53 AM 27.0 °F 11.3 °F 24.1 °F 89% 29.61 in 0.2 mi NW 27.6 mph 43.7 mph 0.01 in Fog , Snow Light Snow
8:21 AM 26.6 °F 10.0 °F 24.8 °F 93% 29.56 in 0.8 mi NW 31.1 mph 43.7 mph 0.01 in   Overcast
8:53 AM 28.0 °F 12.5 °F 25.0 °F 88% 29.66 in 0.5 mi NW 28.8 mph 44.9 mph 0.01 in Fog Light Freezing Fog
9:07 AM 28.4 °F 13.0 °F 24.8 °F 86% 29.60 in 1.0 mi NW 28.8 mph 36.8 mph 0.00 in   Overcast
9:50 AM 30.2 °F 14.5 °F 24.8 °F 80% 29.62 in 3.0 mi NW 33.4 mph 47.2 mph 0.00 in   Haze
9:53 AM 30.9 °F 15.5 °F 24.1 °F 76% 29.70 in 4.0 mi NNW 33.4 mph 47.2 mph 0.00 in   Haze
10:53 AM 33.1 °F 18.9 °F 25.0 °F 72% 29.72 in 10.0 mi NW 31.1 mph 38.0 mph N/A   Overcast
11:53 AM 35.1 °F 22.2 °F 25.0 °F 67% 29.73 in 10.0 mi NW 27.6 mph 42.6 mph 0.01 in   Overcast
12:53 PM 35.1 °F 21.4 °F 24.1 °F 64% 29.77 in 10.0 mi NNW 32.2 mph 40.3 mph N/A   Overcast
1:31 PM 33.8 °F 23.2 °F 26.6 °F 75% 29.71 in 2.5 mi NW 17.3 mph 32.2 mph 0.00 in Snow Light Snow
1:40 PM 32.0 °F 20.5 °F 28.4 °F 87% 29.72 in 0.8 mi NW 18.4 mph 27.6 mph 0.00 in Snow Light Snow
1:46 PM 32.0 °F 20.5 °F 28.4 °F 87% 29.72 in 1.0 mi NNW 18.4 mph 27.6 mph 0.00 in Snow Light Snow
1:53 PM 32.0 °F 19.8 °F 28.9 °F 88% 29.81 in 2.0 mi NNW 20.7 mph 27.6 mph 0.00 in Snow Light Snow
2:06 PM 33.8 °F 21.9 °F 28.4 °F 81% 29.74 in 8.0 mi NNW 21.9 mph 33.4 mph 0.00 in   Overcast
2:13 PM 32.0 °F 19.2 °F 26.6 °F 80% 29.74 in 10.0 mi NNW 23.0 mph 31.1 mph 0.00 in   Overcast
2:51 PM 32.0 °F 20.1 °F 26.6 °F 80% 29.78 in 10.0 mi NNW 19.6 mph 27.6 mph 0.00 in   Overcast
2:53 PM 32.0 °F 18.9 °F 26.1 °F 79% 29.87 in 10.0 mi NNW 24.2 mph 28.8 mph 0.00 in   Overcast
3:53 PM 32.0 °F 20.1 °F 25.0 °F 75% 29.91 in 10.0 mi NNW 19.6 mph 28.8 mph N/A   Overcast
4:53 PM 28.9 °F 16.1 °F 21.9 °F 75% 29.96 in 10.0 mi NNW 19.6 mph 29.9 mph N/A   Mostly Cloudy
5:53 PM 27.0 °F 17.3 °F 21.0 °F 78% 30.01 in 10.0 mi NW 10.4 mph - N/A   Clear
6:53 PM 26.1 °F 15.6 °F 21.0 °F 81% 30.02 in 10.0 mi NW 11.5 mph - N/A   Clear
7:53 PM 26.1 °F 14.0 °F 19.9 °F 78% 30.04 in 10.0 mi NW 15.0 mph - N/A   Clear
8:53 PM 25.0 °F 13.6 °F 18.0 °F 75% 30.07 in 10.0 mi NW 12.7 mph - N/A   Clear
9:53 PM 24.1 °F 13.1 °F 16.0 °F 71% 30.09 in 10.0 mi NW 11.5 mph - N/A   Clear
10:53 PM 23.0 °F 11.1 °F 14.0 °F 68% 30.12 in 10.0 mi NW 12.7 mph - N/A   Clear
11:53 PM 21.9 °F 11.0 °F 12.9 °F 68% 30.14 in 10.0 mi NW 10.4 mph - N/A   Clear